SCOUT G-1 DEB, 18525

Orbit data source: Space-Track

SCOUT G-1 DEB, 18525 is space debris in LEO originally from a launch on Fri, 14 Nov 1986 UTC launched from the Air Force Western Test Range (AFWTR). Debris objects in space refer to the collection of defunct objects orbiting the Earth. Examples of debris include non-operational satellites, rocket bodies, and fragments generated from explosions, collisions, or faulty payload assembly.

Loading next visibility...
Identifier
18525, 1986-088D
Orbit
LEO
Last TLE update
4 days ago
Origin
Manufacturer
Unknown
Mission
Spacecraft
Bus & Motor
Unknown
Mass
2 kg wet, 2 kg dry
Launch date (UTC)
1986-11-14 (39 years ago)
Launch vehicle
Unknown
Launch site
Air Force Western Test Range (AFWTR)
Object type
Payload
Rocket body
Debris
Shape & HBR
Unknown
Radar Cross Section
Small (<0.1 m²)

Expand to show TLE details & history

TLE from 4 days ago
0 SCOUT G-1 DEB
1 18525U 86088D   25189.41403395  .00000196  00000-0  16071-3 0  9999
2 18525  89.9245 345.8185 0006687  70.1467 318.4296 13.86209527950635
Epoch: 2025-07-08T09:56Z
TLE epoch observation values (Epoch: 2025-07-08T09:56:12.533Z)
Latitude
28.56788°
Longitude
-89.80219°
Altitude
941.909 km
Speed
7.385 km/s
True Right ascension
23h 03m 26s
True Declination
28° 25' 38"
Sunlit
Object was in daylight at epoch
Visualization orbit readout
Latitude
15.88186°
Longitude
90.10669°
Altitude
945.534 km
Speed
7.38 km/s
Apparent Right ascension
09h 29m 48s
Apparent Declination
-40° 23' 07"
Sunlit
Object is in daylight
Visualization observer readout
Local Sidereal Time
11:48:36
Azimuth
205.756° SW
Elevation
3.701°
Doppler factor
1
Orbital elements
Apogee altitude
943.835 km
Perigee altitude
934.049 km
Semi-major axis
7,317.079 km
Eccentricity
0.00067
Inclination
89.9245°
RAAN
345.8185°
Arg. of periapsis
70.1467°
True anomaly
Unknown
Mean anomaly
318.4296°
Eccentric anomaly
Unknown
Mean motion
3.46766 °/min
Orbital period
103.82 mins
BSTAR
0.00016071
Loading maneuver chart data...
Loading SW <> Apogee altitude chart data...
Loading historical data...
Loading historical data...
Loading historical data...
Loading historical data...
Loading historical data...
Loading historical data...
Loading historical data...
Other satellites on launch #88 in the year 1986 (1986-11-14 UTC)

SCOUT G-1 DEB Visibility forecast

Observer location: undefined°, undefined°

Span
Click to sort rows by Start time (UTC) header in descending order
Start Az.
Max El. time (UTC)
Max El. Az.
Max El.
End time (UTC)
End Az.
7 mins2025-07-12 09:13:35.520Z111.904° ESE2025-07-12 09:17:35.520Z68.666° E16.953°2025-07-12 09:20:35.520Z36.624° NE
10 mins2025-07-12 10:55:35.520Z191.319° SSW2025-07-12 11:00:35.520Z283.169° WNW41.646°2025-07-12 11:05:35.520Z349.991° N
9 mins2025-07-12 21:48:35.520Z25.021° NE2025-07-12 21:52:35.520Z78.616° E30.995°2025-07-12 21:57:35.520Z148.314° SSE
|